Zurück zum Katalog

ARIANE 5 R/B

AktivGTO
NORAD 27716·ROCKET BODY·🇫🇷 France

Gestartet Apr 9, 2003 von Guiana Space Centre

Loading…

TLE

AlterndSource: Space-Track

Epoche: Sep 14, 2026, 08:36 UTC

1 27716U 03013C   26257.35870506 -.00000069  00000-0  19642-2 0  9996
2 27716   0.7959 178.3158 7072266 122.1267 134.1279  2.24037461191837

Verfolge ARIANE 5 R/B in Echtzeit mit AllMySat

Download on the App Store